Date String (YYYY-MM-DD hh:mm:ss) UTC,Instrument flags,absolute air pressure of the measurement (hPa),sample flow rate (lpm),inlet stack bypass flow (lpm),air temperature of the measurement (°C),ambient temperature measured by the external sensor (°C),aerosol sample conditioner tube jacket temperature (°C),OPC LED temperature (°C),internal box temperature (°C),relative humidity of the measurement (%),span deviation,mass concentration of particles derived from Lorenz-Mie calculation of OPC scattering (μg/m³),mass concentration of particles derived from Lorenz-Mie calculation of OPC scattering (μg/m³),mass concentration of particles derived from Lorenz-Mie calculation of OPC scattering (μg/m³)
DateTimeUTC,F1_M11,P_M11,Q1_M11,Q2_M11,T1_M11,T2_M11,T3_M11,T4_M11,T5_M11,U1_M11,ZSPAN_M11,X2_M11,X0_M11,X1_M11
2024-06-15 14:00:00,SystemResetWarning,0827.6,4.99,000.00,030.0,029.1,000.0,038.5,031.7,036.7,0001.1,0011.41,0020.63,0009.55
2024-06-15 14:01:00,SystemResetWarning,0827.7,4.99,000.00,030.0,029.2,000.0,038.5,031.8,036.7,0001.0,0011.36,0020.85,0009.52
2024-06-15 14:02:00,SystemResetWarning,0827.7,5.01,000.00,030.1,029.3,000.0,038.5,031.9,036.6,0001.2,0011.19,0020.63,0009.43
2024-06-15 14:03:00,SystemResetWarning,0827.7,5.01,000.00,030.1,029.4,000.0,038.5,031.9,036.7,0001.6,0011.03,0021.02,0009.32
2024-06-15 14:04:00,SystemResetWarning,0827.6,5.00,000.00,030.2,029.5,000.0,038.5,032.0,035.7,0001.8,0010.91,0021.31,0009.19
2024-06-15 14:05:00,SystemResetWarning,0827.6,4.99,000.00,030.2,029.6,000.0,038.5,032.0,035.5,0002.1,0010.80,0021.32,0009.07
2024-06-15 14:06:00,SystemResetWarning,0827.7,4.99,000.00,030.3,029.7,000.0,038.5,032.0,035.5,0002.0,0010.69,0020.94,0008.99
2024-06-15 14:07:00,SystemResetWarning,0827.7,5.00,000.00,030.3,029.7,000.0,038.6,032.1,035.6,0001.7,0010.63,0019.37,0008.90
2024-06-15 14:08:00,SystemResetWarning,0827.7,5.01,000.00,030.3,029.8,000.0,038.6,032.1,035.6,0001.7,0010.54,0019.54,0008.78
2024-06-15 14:09:00,SystemResetWarning,0827.7,5.01,000.00,030.4,029.8,000.0,038.6,032.2,035.0,0001.7,0010.42,0019.52,0008.69
2024-06-15 14:10:00,SystemResetWarning,0827.7,5.00,000.00,030.4,029.9,000.0,038.6,032.2,034.3,0001.5,0010.28,0019.57,0008.58
2024-06-15 14:11:00,SystemResetWarning,0827.7,5.00,000.00,030.4,029.9,000.0,038.7,032.2,033.7,0001.4,0010.12,0020.30,0008.44
2024-06-15 14:12:00,SystemResetWarning,0827.7,4.99,000.00,030.5,030.0,000.0,038.7,032.3,033.7,0001.2,0009.96,0020.56,0008.29
2024-06-15 14:13:00,SystemResetWarning,0827.6,5.00,000.00,030.5,030.0,000.0,038.7,032.3,034.1,0000.7,0009.84,0020.59,0008.19
2024-06-15 14:14:00,SystemResetWarning,0827.5,5.00,000.00,030.6,030.0,000.0,038.8,032.3,033.9,-000.0,0009.73,0020.32,0008.10
2024-06-15 14:15:00,SystemResetWarning,0827.5,5.00,000.00,030.5,029.0,000.0,038.8,031.8,033.9,-000.5,0009.64,0020.49,0008.03
2024-06-15 14:16:00,SystemResetWarning,0827.5,5.02,000.00,030.1,027.1,000.0,038.9,030.9,035.1,-000.7,0009.51,0020.39,0007.95
2024-06-15 14:17:00,SystemResetWarning,0827.4,5.02,000.00,029.8,026.6,000.0,038.8,030.6,035.3,-000.2,0009.38,0020.30,0007.84
2024-06-15 14:18:00,SystemResetWarning,0827.5,4.99,000.00,029.7,027.0,000.0,038.7,030.7,034.8,0000.3,0009.21,0020.31,0007.75
2024-06-15 14:19:00,SystemResetWarning,0827.5,4.99,000.00,029.7,027.4,000.0,038.6,030.9,035.6,0000.1,0009.16,0020.61,0007.68
2024-06-15 14:20:00,SystemResetWarning,0827.5,5.00,000.00,029.7,027.7,000.0,038.5,031.1,036.1,0000.3,0009.10,0020.07,0007.62
2024-06-15 14:21:00,SystemResetWarning,0827.5,5.01,000.00,029.7,028.1,000.0,038.4,031.2,035.9,0000.3,0009.10,0019.78,0007.57
2024-06-15 14:22:00,SystemResetWarning,0827.5,5.00,000.00,029.7,028.4,000.0,038.4,031.4,035.8,0000.1,0009.18,0019.24,0007.55
2024-06-15 14:23:00,SystemResetWarning,0827.5,4.99,000.00,029.8,028.6,000.0,038.3,031.5,036.1,0000.6,0009.17,0018.84,0007.51
2024-06-15 14:24:00,SystemResetWarning,0827.4,4.99,000.00,029.8,028.8,000.0,038.3,031.6,035.5,0001.2,0009.11,0018.46,0007.47
2024-06-15 14:25:00,SystemResetWarning,0827.6,5.00,000.00,029.9,029.0,000.0,038.3,031.6,035.4,0001.4,0009.13,0019.53,0007.46
2024-06-15 14:26:00,SystemResetWarning,0827.8,5.00,000.00,029.9,029.1,000.0,038.3,031.7,035.6,0001.6,0009.16,0019.13,0007.46
2024-06-15 14:27:00,SystemResetWarning,0827.8,5.00,000.00,030.0,029.3,000.0,038.3,031.8,035.5,0001.3,0009.14,0019.14,0007.47
2024-06-15 14:28:00,SystemResetWarning,0827.7,5.00,000.00,030.0,029.4,000.0,038.3,031.8,035.6,0000.9,0009.14,0020.22,0007.47
2024-06-15 14:29:00,SystemResetWarning,0827.6,5.00,000.00,030.1,029.5,000.0,038.4,031.9,035.5,0000.7,0009.14,0020.99,0007.48
2024-06-15 14:30:00,SystemResetWarning,0827.5,5.00,000.00,030.1,029.5,000.0,038.4,031.9,035.5,0000.4,0009.09,0021.21,0007.48
2024-06-15 14:31:00,SystemResetWarning,0827.5,5.00,000.00,030.2,029.6,000.0,038.4,032.0,035.9,-000.1,0009.06,0022.11,0007.49
2024-06-15 14:32:00,SystemResetWarning,0827.4,5.00,000.00,030.2,029.7,000.0,038.4,032.0,036.0,-000.1,0009.03,0022.04,0007.49
2024-06-15 14:33:00,SystemResetWarning,0827.7,5.01,000.00,030.3,029.7,000.0,038.5,032.1,035.6,0000.1,0008.91,0022.19,0007.49
2024-06-15 14:34:00,SystemResetWarning,0827.7,5.00,000.00,030.3,029.8,000.0,038.5,032.1,035.8,0000.4,0008.91,0022.81,0007.51
2024-06-15 14:35:00,SystemResetWarning,0827.5,5.00,000.00,030.4,029.9,000.0,038.5,032.1,035.9,0000.3,0008.93,0022.79,0007.52
2024-06-15 14:36:00,SystemResetWarning,0827.4,5.00,000.00,030.4,029.9,000.0,038.6,032.2,035.3,0000.3,0008.87,0021.67,0007.52
2024-06-15 14:37:00,SystemResetWarning,0827.4,5.00,000.00,030.4,029.5,000.0,038.6,032.0,035.4,-000.3,0008.88,0020.95,0007.49
2024-06-15 14:38:00,SystemResetWarning,0827.4,4.99,000.00,030.1,027.6,000.0,038.7,031.1,035.4,-000.2,0008.94,0021.52,0007.47
2024-06-15 14:39:00,SystemResetWarning,0827.3,5.01,000.00,029.8,026.6,000.0,038.7,030.6,036.2,0000.1,0009.02,0022.33,0007.45
2024-06-15 14:40:00,SystemResetWarning,0827.3,5.01,000.00,029.6,026.7,000.0,038.6,030.6,036.9,0000.4,0009.05,0021.61,0007.44
2024-06-15 14:41:00,SystemResetWarning,0827.4,4.99,000.00,029.6,027.1,000.0,038.4,030.8,037.3,0001.0,0009.12,0021.08,0007.44
2024-06-15 14:42:00,SystemResetWarning,0827.4,5.00,000.00,029.6,027.5,000.0,038.3,031.0,037.2,0001.7,0009.17,0020.60,0007.44
2024-06-15 14:43:00,SystemResetWarning,0827.4,5.01,000.00,029.6,027.9,000.0,038.3,031.2,037.0,0001.8,0009.24,0020.55,0007.43
2024-06-15 14:44:00,SystemResetWarning,0827.4,5.00,000.00,029.6,028.2,000.0,038.3,031.3,036.5,0002.2,0009.28,0020.71,0007.43
2024-06-15 14:45:00,SystemResetWarning,0827.4,4.99,000.00,029.7,028.5,000.0,038.2,031.4,036.6,0001.8,0009.25,0019.52,0007.43
2024-06-15 14:46:00,SystemResetWarning,0827.3,5.00,000.00,029.7,028.7,000.0,038.2,031.5,036.3,0001.6,0009.19,0020.24,0007.40
2024-06-15 14:47:00,SystemResetWarning,0827.4,5.00,000.00,029.8,028.9,000.0,038.2,031.5,035.6,0001.4,0009.16,0021.28,0007.39
2024-06-15 14:48:00,SystemResetWarning,0827.4,5.00,000.00,029.8,029.1,000.0,038.2,031.6,035.2,0001.7,0009.10,0021.01,0007.40
2024-06-15 14:49:00,SystemResetWarning,0827.4,5.01,000.00,029.9,029.2,000.0,038.2,031.7,034.6,0001.9,0009.04,0021.88,0007.38
2024-06-15 14:50:00,SystemResetWarning,0827.4,5.00,000.00,030.0,029.3,000.0,038.2,031.8,034.3,0001.7,0008.93,0020.52,0007.33
2024-06-15 14:51:00,SystemResetWarning,0827.3,5.00,000.00,030.0,029.4,000.0,038.3,031.8,033.9,0001.7,0008.78,0019.84,0007.26
2024-06-15 14:52:00,SystemResetWarning,0827.3,5.00,000.00,030.1,029.5,000.0,038.3,031.9,034.7,0001.5,0008.62,0019.87,0007.20
2024-06-15 14:53:00,SystemResetWarning,0827.3,5.00,000.00,030.1,029.6,000.0,038.3,031.9,034.9,0001.6,0008.51,0019.88,0007.13
2024-06-15 14:54:00,SystemResetWarning,0827.3,5.00,000.00,030.2,029.6,000.0,038.3,032.0,035.1,0001.2,0008.45,0020.61,0007.09
2024-06-15 14:55:00,SystemResetWarning,0827.3,4.99,000.00,030.2,029.7,000.0,038.4,032.0,035.2,0001.2,0008.46,0020.57,0007.05
2024-06-15 14:56:00,SystemResetWarning,0827.2,4.99,000.00,030.2,028.8,000.0,038.4,031.6,035.4,0001.9,0008.47,0020.52,0007.02
2024-06-15 14:57:00,SystemResetWarning,0827.2,5.00,000.00,029.8,026.9,000.0,038.5,030.7,036.0,0001.9,0008.48,0021.33,0007.00
2024-06-15 14:58:00,SystemResetWarning,0827.2,5.02,000.00,029.6,026.5,000.0,038.5,030.4,036.1,0001.7,0008.49,0020.84,0006.97
2024-06-15 14:59:00,SystemResetWarning,0827.1,4.99,000.00,029.4,026.8,000.0,038.3,030.5,037.4,0001.7,0008.49,0021.03,0006.93
